Home > Weather > Kwajalein > Past weeks

Flag for Marshall Islands Past Weather in Kwajalein, Marshall Islands — Yesterday and Last 2 Weeks

Now
86 °F

Scattered clouds.


Feels Like: 92 °F
Forecast: 82 / 88 °F
Wind: 21 mph from East

Location: Kwajalein / Bucholz

Current Time: May 24, 2016 at 6:11:34 PM

Latest Report: May 24, 2016 at 6:00 PM


Visibility: 10 mi

Pressure: 29.86 "Hg

Humidity: 65%

Dew Point: 72 °F

Location of KwajaleinLocation

Past Weather in Kwajalein — Graph

°F

Kwajalein Temperature Yesterday

Maximum temperature yesterday: 87 °F (at 1:40 PM)
Minimum temperature yesterday: 81 °F (at 11:20 PM)
Average temperature yesterday: 84 °F

High & Low Weather Summary for the Past Weeks

 TemperatureHumidityPressure
High88 °F (May 13, 2:20 PM)90% (May 18, 2:40 AM)29.94 "Hg (May 18, 2:40 AM)
Low78 °F (May 9, 8:20 PM)61% (May 14, 2:40 PM)29.73 "Hg (May 15, 4:00 PM)
Average83 °F73%29.84 "Hg
* Reported May 9 5:00 PM — May 24 5:00 PM, Kwajalein, Weather by CustomWeather, © 2016

Note: Actual official high and low records may vary slightly from our data, if they occured in-between our weather recording intervals... More about our weather records

Advertising

Kwajalein Weather History for the Previous 24 Hours

Scroll right to see more
 ConditionsComfort  
Time TempWeatherWind HumidityBarometerVisibility
5:00 PM
Tue, May 24
87 °FScattered clouds.21 mph62%29.84 "Hg10 mi
4:40 PM87 °FScattered clouds.17 mph62%29.84 "HgN/A
4:20 PM87 °FScattered clouds.20 mph62%29.84 "Hg10 mi
4:00 PM87 °FScattered clouds.20 mph61%29.85 "Hg10 mi
3:40 PM87 °FSunny.21 mph62%29.85 "Hg10 mi
3:20 PM87 °FSunny.16 mph62%29.86 "Hg10 mi
3:00 PM87 °FScattered clouds.18 mph62%29.86 "Hg10 mi
2:40 PM87 °FScattered clouds.22 mph62%29.86 "Hg10 mi
2:20 PM87 °FScattered clouds.21 mph62%29.87 "Hg10 mi
2:00 PM87 °FScattered clouds.21 mph62%29.88 "Hg10 mi
1:20 PM87 °FSunny.21 mph62%29.88 "Hg10 mi
1:00 PM87 °FSunny.23 mph63%29.88 "Hg10 mi
12:20 PM87 °FScattered clouds.25 mph65%29.90 "Hg10 mi
12:00 PM87 °FBroken clouds.24 mph65%29.90 "Hg10 mi
11:40 AM87 °FCloudy.23 mph67%29.91 "Hg10 mi
11:20 AM86 °FPartly sunny.23 mph69%29.91 "Hg10 mi
11:00 AM85 °FScattered clouds.20 mph71%29.92 "Hg10 mi
10:40 AM84 °FScattered clouds.21 mph74%29.92 "Hg10 mi
10:20 AM83 °FCloudy.23 mph76%29.92 "Hg10 mi
10:00 AM83 °FMore clouds than sun.22 mph78%29.92 "Hg10 mi
9:40 AM83 °FLight rain. Cloudy.21 mph79%29.92 "Hg5 mi
9:20 AM82 °FMore clouds than sun.17 mph81%29.92 "Hg10 mi
9:00 AM82 °FBroken clouds.21 mph82%29.92 "Hg10 mi
8:40 AM82 °FBroken clouds.21 mph83%29.92 "Hg10 mi
8:20 AM81 °FBroken clouds.20 mph84%29.91 "Hg10 mi
8:00 AM81 °FRain. Broken clouds.21 mph84%29.90 "Hg2 mi
7:40 AM81 °FRain. Cloudy.14 mph83%29.90 "Hg3 mi
7:20 AM82 °FRain. Broken clouds.14 mph82%29.89 "Hg7 mi
7:00 AM81 °FScattered clouds.13 mph81%29.89 "Hg10 mi
6:40 AM81 °FScattered clouds.16 mph81%29.88 "Hg10 mi
6:20 AM81 °FMostly cloudy.17 mph82%29.88 "Hg10 mi
6:00 AM81 °FPassing clouds.12 mph82%29.88 "Hg10 mi
5:40 AM81 °FPassing clouds.13 mph82%29.87 "Hg10 mi
5:20 AM81 °FPassing clouds.13 mph83%29.87 "Hg10 mi
5:00 AM81 °FPassing clouds.15 mph83%29.87 "Hg10 mi
4:40 AM81 °FPassing clouds.14 mph83%29.87 "Hg10 mi
4:20 AM81 °FPassing clouds.12 mph83%29.87 "Hg10 mi
4:00 AM81 °FPassing clouds.15 mph84%29.87 "Hg10 mi
3:40 AM81 °FPassing clouds.15 mph84%29.87 "Hg10 mi
3:20 AM81 °FPassing clouds.16 mph84%29.87 "Hg10 mi
3:00 AM81 °FOvercast.16 mph83%29.87 "Hg10 mi
2:40 AM81 °FOvercast.15 mph82%29.88 "Hg10 mi
2:20 AM81 °FPartly cloudy.10 mph81%29.88 "Hg10 mi
2:00 AM81 °FPassing clouds.15 mph81%29.88 "Hg10 mi
1:40 AM81 °FPartly cloudy.15 mph80%29.89 "Hg10 mi
1:20 AM81 °FLight rain. Partly cloudy.13 mph79%29.90 "Hg10 mi
1:00 AM81 °FPassing clouds.14 mph78%29.91 "Hg10 mi
12:40 AM81 °FPartly cloudy.18 mph77%29.91 "Hg10 mi
12:20 AM81 °FPartly cloudy.20 mph76%29.92 "Hg10 mi
12:00 AM81 °FPassing clouds.18 mph75%29.92 "Hg10 mi
11:20 PM
Mon, May 23
81 °FClear.17 mph77%29.92 "Hg10 mi
11:00 PM81 °FPassing clouds.16 mph76%29.92 "Hg10 mi
10:40 PM81 °FPassing clouds.16 mph76%29.92 "Hg10 mi
10:20 PM82 °FClear.14 mph75%29.92 "Hg10 mi
10:00 PM82 °FPassing clouds.21 mph74%29.92 "Hg10 mi
9:40 PM83 °FPassing clouds.24 mph73%29.93 "Hg10 mi
9:20 PM83 °FPassing clouds.16 mph73%29.93 "Hg10 mi
9:00 PM83 °FPassing clouds.16 mph73%29.93 "Hg10 mi
8:40 PM83 °FPartly cloudy.16 mph74%29.92 "Hg10 mi
8:20 PM83 °FPassing clouds.16 mph73%29.91 "Hg10 mi
8:00 PM83 °FClear.16 mph73%29.91 "Hg10 mi
7:40 PM83 °FPassing clouds.16 mph73%29.90 "Hg10 mi
7:20 PM83 °FPartly cloudy.13 mph73%29.90 "Hg10 mi
7:00 PM83 °FScattered clouds.14 mph72%29.89 "Hg10 mi
6:40 PM84 °FScattered clouds.15 mph71%29.88 "Hg10 mi
6:20 PM84 °FBroken clouds.13 mph69%29.88 "Hg10 mi
6:00 PM85 °FBroken clouds.14 mph68%29.88 "Hg7 mi
Weather by CustomWeather, © 2016

See weather overviewHow to use our weather pages